Location: Lake Lucerne
(45.5315°N, 88.8489°W)
Time: 21:21:21
(UTC-05:00)

ARIANE 6 FM1 Upper Stage - Pass Details

Date: 22 September 2024
Orbit: 563 x 594 km, 62.0° (Epoch: 09 October)

Event Time Altitude Azimuth Distance (km) Brightness Sun altitude
Rises 21:26:27 0° 251° (WSW) 2,782 6.8 -26.7°
Reaches altitude 10° 21:28:55 10° 262° (W) 1,893 6.0 -27.1°
Maximum altitude 21:32:39 29° 323° (NW) 1,094 4.6 -27.7°
Enters shadow 21:35:09 17° 13° (NNE) 1,515 5.0 -28.1°
